| time (UTC) | temp F | wind direction | speed MPH | gust MPH | rain 1hr in | rain 24hr in | rain mn in | humidity % | barometer mb |
| 20260507043418 | 43 | 0.0 | 0.0 | 0.00 | 0.00 | 0.00 | 76 | 1013.4 | |
| 20260507042418 | 43 | 0.0 | 0.0 | 0.00 | 0.00 | 0.00 | 77 | 1013.2 | |
| 20260507041419 | 42 | 0.0 | 0.0 | 0.00 | 0.00 | 0.00 | 77 | 1013.2 | |
| 20260507040418 | 41 | 0.0 | 0.0 | 0.00 | 0.00 | 0.00 | 77 | 1013.0 | |
| 20260507035418 | 41 | 45 | 2.0 | 3.0 | 0.00 | 0.00 | 0.00 | 78 | 1012.9 |
| 20260507034438 | 41 | 45 | 2.0 | 3.0 | 0.00 | 0.00 | 0.00 | 78 | 1012.8 |
| 20260507033440 | 40 | 45 | 2.0 | 2.0 | 0.00 | 0.00 | 0.00 | 78 | 1012.8 |
| 20260507032419 | 40 | 45 | 3.0 | 4.0 | 0.00 | 0.00 | 0.00 | 78 | 1012.7 |
| 20260507031420 | 40 | 23 | 1.0 | 3.0 | 0.00 | 0.00 | 0.00 | 78 | 1012.7 |
| 20260507030420 | 40 | 0 | 1.0 | 3.0 | 0.00 | 0.00 | 0.00 | 78 | 1012.6 |
| 20260507025420 | 41 | 0 | 2.0 | 2.0 | 0.00 | 0.00 | 0.00 | 77 | 1012.7 |
| 20260507024419 | 41 | 68 | 3.0 | 3.0 | 0.00 | 0.00 | 0.00 | 76 | 1012.6 |
| 20260507023420 | 43 | 0.0 | 0.0 | 0.00 | 0.00 | 0.00 | 76 | 1012.5 | |
| 20260507022420 | 43 | 0.0 | 0.0 | 0.00 | 0.00 | 0.00 | 77 | 1012.5 | |
| 20260507021420 | 43 | 0.0 | 0.0 | 0.00 | 0.00 | 0.00 | 77 | 1012.4 | |
| 20260507020419 | 43 | 135 | 2.0 | 3.0 | 0.00 | 0.00 | 0.00 | 77 | 1012.4 |
| 20260507015419 | 43 | 135 | 3.0 | 4.0 | 0.00 | 0.00 | 0.00 | 77 | 1012.3 |
| 20260507014419 | 43 | 135 | 3.0 | 4.0 | 0.00 | 0.00 | 0.00 | 76 | 1012.2 |
| 20260507013419 | 43 | 135 | 2.0 | 3.0 | 0.00 | 0.00 | 0.00 | 75 | 1012.1 |
| 20260507012419 | 43 | 135 | 3.0 | 3.0 | 0.00 | 0.00 | 0.00 | 76 | 1012.1 |
| 20260507011439 | 43 | 135 | 3.0 | 4.0 | 0.00 | 0.00 | 0.00 | 76 | 1012.1 |
| 20260507010419 | 43 | 135 | 4.0 | 5.0 | 0.00 | 0.00 | 0.00 | 76 | 1012.1 |
| 20260507005419 | 43 | 0.0 | 0.0 | 0.00 | 0.00 | 0.00 | 75 | 1011.9 | |
| 20260507004419 | 43 | 0.0 | 0.0 | 0.00 | 0.00 | 0.00 | 74 | 1012.0 | |
| 20260507003419 | 44 | 0.0 | 0.0 | 0.00 | 0.00 | 0.00 | 73 | 1011.9 | |
| 20260507002419 | 44 | 0.0 | 0.0 | 0.00 | 0.00 | 0.00 | 73 | 1011.9 | |
| 20260507001419 | 44 | 0.0 | 0.0 | 0.00 | 0.00 | 0.00 | 73 | 1011.9 | |
| 20260507000420 | 44 | 0.0 | 0.0 | 0.00 | 0.00 | 0.00 | 74 | 1011.8 | |
| 20260506235419 | 44 | 0.0 | 0.0 | 0.00 | 0.00 | 0.00 | 73 | 1011.8 | |
| 20260506234418 | 45 | 0 | 1.0 | 2.0 | 0.00 | 0.00 | 0.00 | 73 | 1011.7 |
| 20260506233418 | 45 | 293 | 4.0 | 5.0 | 0.00 | 0.00 | 0.00 | 73 | 1011.6 |
| 20260506232418 | 45 | 270 | 4.0 | 4.0 | 0.00 | 0.00 | 0.00 | 73 | 1011.7 |
| 20260506231419 | 45 | 293 | 5.0 | 5.0 | 0.00 | 0.00 | 0.00 | 72 | 1011.8 |
| 20260506230418 | 45 | 270 | 5.0 | 6.0 | 0.00 | 0.00 | 0.00 | 71 | 1011.7 |
| 20260506225438 | 44 | 315 | 6.0 | 7.0 | 0.00 | 0.00 | 0.00 | 71 | 1011.7 |
| 20260506224419 | 45 | 270 | 4.0 | 5.0 | 0.00 | 0.00 | 0.00 | 72 | 1011.7 |
| 20260506223418 | 45 | 315 | 4.0 | 5.0 | 0.00 | 0.00 | 0.00 | 72 | 1011.7 |
| 20260506222418 | 45 | 315 | 6.0 | 7.0 | 0.00 | 0.00 | 0.00 | 72 | 1011.7 |
| 20260506221418 | 45 | 315 | 8.0 | 10.0 | 0.00 | 0.00 | 0.00 | 72 | 1011.7 |
| 20260506220418 | 45 | 293 | 7.0 | 10.0 | 0.00 | 0.00 | 0.00 | 73 | 1011.6 |
| 20260506215419 | 45 | 315 | 7.0 | 8.0 | 0.00 | 0.00 | 0.00 | 71 | 1011.6 |
| 20260506214419 | 45 | 293 | 6.0 | 7.0 | 0.00 | 0.00 | 0.00 | 68 | 1011.6 |
| 20260506213418 | 45 | 315 | 7.0 | 9.0 | 0.00 | 0.00 | 0.00 | 67 | 1011.5 |
| 20260506212419 | 45 | 315 | 8.0 | 10.0 | 0.00 | 0.00 | 0.00 | 68 | 1011.4 |
| 20260506211419 | 45 | 315 | 9.0 | 11.0 | 0.00 | 0.00 | 0.00 | 68 | 1011.4 |
| 20260506210439 | 45 | 293 | 8.0 | 10.0 | 0.00 | 0.00 | 0.00 | 67 | 1011.3 |
| 20260506205419 | 46 | 293 | 7.0 | 10.0 | 0.00 | 0.00 | 0.00 | 67 | 1011.3 |
| 20260506204418 | 46 | 293 | 6.0 | 10.0 | 0.00 | 0.00 | 0.00 | 66 | 1011.3 |
| 20260506203438 | 46 | 315 | 8.0 | 10.0 | 0.00 | 0.00 | 0.00 | 64 | 1011.3 |
| 20260506202418 | 46 | 293 | 9.0 | 11.0 | 0.00 | 0.00 | 0.00 | 59 | 1011.2 |
| 20260506201418 | 46 | 315 | 9.0 | 11.0 | 0.00 | 0.00 | 0.00 | 58 | 1011.2 |
| 20260506200418 | 46 | 293 | 9.0 | 11.0 | 0.00 | 0.00 | 0.00 | 57 | 1011.1 |
| 20260506195418 | 46 | 315 | 7.0 | 10.0 | 0.00 | 0.00 | 0.00 | 56 | 1011.1 |
| 20260506194418 | 46 | 315 | 9.0 | 13.0 | 0.00 | 0.00 | 0.00 | 55 | 1011.1 |
| 20260506193418 | 47 | 293 | 6.0 | 7.0 | 0.00 | 0.00 | 0.00 | 52 | 1011.1 |
| 20260506192458 | 47 | 293 | 6.0 | 9.0 | 0.00 | 0.00 | 0.00 | 53 | 1010.8 |
| 20260506191420 | 47 | 293 | 5.0 | 7.0 | 0.00 | 0.00 | 0.00 | 52 | 1010.8 |
| 20260506190419 | 47 | 293 | 7.0 | 10.0 | 0.00 | 0.00 | 0.00 | 53 | 1010.7 |
| 20260506185440 | 48 | 293 | 8.0 | 10.0 | 0.00 | 0.00 | 0.00 | 52 | 1010.6 |
| 20260506184420 | 48 | 293 | 9.0 | 10.0 | 0.00 | 0.00 | 0.00 | 50 | 1010.6 |
| 20260506183420 | 49 | 293 | 8.0 | 12.0 | 0.00 | 0.00 | 0.00 | 51 | 1010.5 |
| 20260506182420 | 50 | 315 | 6.0 | 9.0 | 0.00 | 0.00 | 0.00 | 51 | 1010.5 |
| 20260506181419 | 50 | 315 | 9.0 | 12.0 | 0.00 | 0.00 | 0.00 | 51 | 1010.5 |
| 20260506180439 | 51 | 315 | 9.0 | 11.0 | 0.00 | 0.00 | 0.00 | 50 | 1010.4 |
| 20260506175419 | 51 | 315 | 8.0 | 11.0 | 0.00 | 0.00 | 0.00 | 49 | 1010.4 |
| 20260506174439 | 53 | 315 | 7.0 | 9.0 | 0.00 | 0.00 | 0.00 | 50 | 1010.4 |
| 20260506173439 | 53 | 315 | 7.0 | 9.0 | 0.00 | 0.00 | 0.00 | 51 | 1010.3 |
| 20260506172419 | 54 | 315 | 9.0 | 10.0 | 0.00 | 0.00 | 0.00 | 50 | 1010.4 |
| 20260506171419 | 54 | 315 | 5.0 | 8.0 | 0.00 | 0.00 | 0.00 | 50 | 1010.4 |
| 20260506170419 | 55 | 315 | 8.0 | 10.0 | 0.00 | 0.00 | 0.00 | 51 | 1010.4 |
| 20260506165419 | 55 | 338 | 8.0 | 10.0 | 0.00 | 0.00 | 0.00 | 53 | 1010.4 |
| 20260506164419 | 56 | 315 | 9.0 | 11.0 | 0.00 | 0.00 | 0.00 | 54 | 1010.5 |
| 20260506163419 | 56 | 315 | 8.0 | 10.0 | 0.00 | 0.00 | 0.00 | 52 | 1010.5 |
| 20260506162439 | 57 | 315 | 7.0 | 9.0 | 0.00 | 0.00 | 0.00 | 53 | 1010.5 |
| 20260506161419 | 57 | 315 | 8.0 | 11.0 | 0.00 | 0.00 | 0.00 | 52 | 1010.5 |
| 20260506160419 | 57 | 315 | 9.0 | 11.0 | 0.00 | 0.00 | 0.00 | 54 | 1010.4 |
| 20260506155419 | 58 | 315 | 9.0 | 11.0 | 0.00 | 0.00 | 0.00 | 54 | 1010.5 |
| 20260506154419 | 58 | 315 | 11.0 | 13.0 | 0.00 | 0.00 | 0.00 | 57 | 1010.5 |
| 20260506153419 | 57 | 315 | 8.0 | 10.0 | 0.00 | 0.00 | 0.00 | 58 | 1010.6 |
| 20260506152418 | 57 | 293 | 8.0 | 11.0 | 0.00 | 0.00 | 0.00 | 56 | 1010.6 |
| 20260506151419 | 58 | 315 | 9.0 | 10.0 | 0.00 | 0.00 | 0.00 | 55 | 1010.6 |
| 20260506150418 | 58 | 315 | 8.0 | 11.0 | 0.00 | 0.00 | 0.00 | 55 | 1010.6 |
| 20260506145418 | 59 | 315 | 11.0 | 13.0 | 0.00 | 0.00 | 0.00 | 54 | 1010.6 |
| 20260506144438 | 60 | 293 | 9.0 | 12.0 | 0.00 | 0.00 | 0.00 | 52 | 1010.8 |
| 20260506143418 | 60 | 315 | 7.0 | 12.0 | 0.00 | 0.00 | 0.00 | 51 | 1010.8 |
| 20260506142419 | 60 | 315 | 9.0 | 11.0 | 0.00 | 0.00 | 0.00 | 51 | 1010.9 |
| 20260506141418 | 59 | 315 | 5.0 | 7.0 | 0.00 | 0.00 | 0.00 | 52 | 1010.9 |
| 20260506140418 | 58 | 293 | 7.0 | 10.0 | 0.00 | 0.00 | 0.00 | 54 | 1010.8 |
| 20260506135418 | 58 | 293 | 9.0 | 10.0 | 0.00 | 0.00 | 0.00 | 53 | 1010.8 |
| 20260506134418 | 59 | 293 | 7.0 | 9.0 | 0.00 | 0.00 | 0.00 | 52 | 1010.8 |
| 20260506133418 | 59 | 293 | 6.0 | 7.0 | 0.00 | 0.00 | 0.00 | 51 | 1010.9 |
| 20260506132420 | 59 | 315 | 6.0 | 8.0 | 0.00 | 0.00 | 0.00 | 54 | 1011.0 |
| 20260506131420 | 59 | 315 | 8.0 | 9.0 | 0.00 | 0.00 | 0.00 | 56 | 1011.0 |
| 20260506130420 | 59 | 293 | 7.0 | 9.0 | 0.00 | 0.00 | 0.00 | 55 | 1011.0 |
| 20260506125420 | 59 | 293 | 6.0 | 9.0 | 0.00 | 0.00 | 0.00 | 54 | 1011.0 |
| 20260506124420 | 59 | 315 | 6.0 | 9.0 | 0.00 | 0.00 | 0.00 | 51 | 1011.0 |
| 20260506123419 | 58 | 270 | 8.0 | 11.0 | 0.00 | 0.00 | 0.00 | 53 | 1011.0 |
| 20260506122420 | 58 | 270 | 10.0 | 12.0 | 0.00 | 0.00 | 0.00 | 53 | 1011.1 |
| 20260506121419 | 58 | 293 | 9.0 | 11.0 | 0.00 | 0.00 | 0.00 | 55 | 1011.2 |
| 20260506120420 | 57 | 293 | 10.0 | 12.0 | 0.00 | 0.00 | 0.00 | 54 | 1011.3 |
| 20260506115419 | 57 | 270 | 9.0 | 12.0 | 0.00 | 0.00 | 0.00 | 55 | 1011.3 |
| 20260506114420 | 56 | 248 | 7.0 | 10.0 | 0.00 | 0.00 | 0.00 | 53 | 1011.3 |
| 20260506113440 | 53 | 270 | 13.0 | 16.0 | 0.00 | 0.00 | 0.00 | 60 | 1011.3 |
| 20260506112419 | 52 | 248 | 9.0 | 12.0 | 0.00 | 0.00 | 0.00 | 52 | 1011.4 |
| 20260506111419 | 54 | 248 | 9.0 | 11.0 | 0.00 | 0.00 | 0.00 | 53 | 1011.4 |
| 20260506110419 | 52 | 270 | 9.0 | 11.0 | 0.00 | 0.00 | 0.00 | 57 | 1011.4 |
| 20260506105419 | 53 | 248 | 10.0 | 12.0 | 0.00 | 0.00 | 0.00 | 57 | 1011.4 |
| 20260506104419 | 52 | 203 | 10.0 | 16.0 | 0.00 | 0.00 | 0.00 | 58 | 1011.4 |
| 20260506103439 | 50 | 248 | 9.0 | 11.0 | 0.00 | 0.00 | 0.00 | 57 | 1011.4 |
| 20260506102419 | 50 | 225 | 7.0 | 11.0 | 0.00 | 0.00 | 0.00 | 63 | 1011.4 |
| 20260506101419 | 50 | 180 | 7.0 | 11.0 | 0.00 | 0.00 | 0.00 | 58 | 1011.4 |
| 20260506100418 | 50 | 203 | 12.0 | 15.0 | 0.00 | 0.00 | 0.00 | 64 | 1011.4 |
| 20260506095419 | 49 | 180 | 11.0 | 14.0 | 0.00 | 0.00 | 0.00 | 62 | 1011.3 |
| 20260506094419 | 49 | 225 | 9.0 | 11.0 | 0.00 | 0.00 | 0.00 | 66 | 1011.4 |
| 20260506093419 | 49 | 180 | 11.0 | 14.0 | 0.00 | 0.00 | 0.00 | 62 | 1011.4 |
| 20260506092419 | 49 | 180 | 9.0 | 14.0 | 0.00 | 0.00 | 0.00 | 64 | 1011.5 |
| 20260506091418 | 49 | 203 | 7.0 | 12.0 | 0.00 | 0.00 | 0.00 | 61 | 1011.5 |
| 20260506090439 | 49 | 203 | 7.0 | 9.0 | 0.00 | 0.00 | 0.00 | 69 | 1011.5 |
| 20260506085418 | 49 | 203 | 10.0 | 12.0 | 0.00 | 0.00 | 0.00 | 68 | 1011.5 |
| 20260506084419 | 48 | 203 | 7.0 | 11.0 | 0.00 | 0.00 | 0.00 | 70 | 1011.5 |
| 20260506083418 | 48 | 203 | 7.0 | 9.0 | 0.00 | 0.00 | 0.00 | 72 | 1011.5 |
| 20260506082419 | 48 | 225 | 4.0 | 7.0 | 0.00 | 0.00 | 0.00 | 71 | 1011.5 |
| 20260506081418 | 49 | 225 | 8.0 | 10.0 | 0.00 | 0.00 | 0.00 | 71 | 1011.5 |
| 20260506080418 | 48 | 158 | 8.0 | 11.0 | 0.00 | 0.00 | 0.00 | 72 | 1011.6 |
| 20260506073418 | 48 | 135 | 11.0 | 14.0 | 0.00 | 0.00 | 0.00 | 73 | 1011.4 |
| 20260506072420 | 48 | 135 | 8.0 | 11.0 | 0.00 | 0.00 | 0.00 | 74 | 1011.3 |
| 20260506071420 | 47 | 135 | 6.0 | 9.0 | 0.00 | 0.00 | 0.00 | 73 | 1011.2 |
| 20260506070440 | 47 | 135 | 7.0 | 11.0 | 0.00 | 0.00 | 0.00 | 73 | 1011.2 |
| 20260506062420 | 46 | 113 | 8.0 | 12.0 | 0.00 | 0.00 | 0.00 | 76 | 1011.2 |
| 20260506061420 | 45 | 135 | 6.0 | 9.0 | 0.00 | 0.00 | 0.00 | 78 | 1011.2 |
| 20260506060419 | 44 | 113 | 6.0 | 10.0 | 0.00 | 0.00 | 0.00 | 80 | 1011.2 |
| 20260506050419 | 41 | 113 | 8.0 | 11.0 | 0.00 | 0.00 | 0.00 | 82 | 1011.1 |
| 20260506044419 | 41 | 113 | 6.0 | 9.0 | 0.00 | 0.00 | 0.00 | 83 | 1011.1 |